| time (UTC) | temp F | wind direction | speed MPH | gust MPH | rain 1hr in | rain 24hr in | rain mn in | humidity % | barometer mb |
| 20260906113055 | 60 | 190 | 0.0 | 0.0 | 0.00 | 0.36 | 0.06 | 82 | 1014.9 |
| 20260906111553 | 59 | 190 | 0.0 | 0.0 | 0.01 | 0.36 | 0.06 | 82 | 1014.6 |
| 20260906110050 | 60 | 190 | 0.0 | 0.0 | 0.02 | 0.36 | 0.06 | 82 | 1014.3 |
| 20260906104550 | 59 | 190 | 0.0 | 0.0 | 0.02 | 0.36 | 0.06 | 82 | 1014.2 |
| 20260906103049 | 59 | 190 | 0.0 | 0.0 | 0.01 | 0.35 | 0.05 | 82 | 1014.0 |
| 20260906101546 | 60 | 190 | 0.0 | 0.0 | 0.01 | 0.35 | 0.05 | 82 | 1013.7 |
| 20260906100043 | 60 | 190 | 0.0 | 0.0 | 0.00 | 0.34 | 0.04 | 82 | 1013.7 |
| 20260906094545 | 60 | 190 | 0.0 | 0.0 | 0.00 | 0.34 | 0.04 | 82 | 1013.5 |
| 20260906093042 | 60 | 190 | 0.0 | 0.0 | 0.00 | 0.34 | 0.04 | 82 | 1013.5 |
| 20260906091539 | 60 | 190 | 0.0 | 0.0 | 0.00 | 0.34 | 0.04 | 82 | 1013.4 |
| 20260906090049 | 60 | 190 | 0.0 | 0.0 | 0.00 | 0.34 | 0.04 | 82 | 1013.2 |
| 20260906084539 | 60 | 190 | 0.0 | 0.0 | 0.00 | 0.34 | 0.04 | 82 | 1013.1 |
| 20260906083045 | 60 | 190 | 0.0 | 0.0 | 0.00 | 0.34 | 0.04 | 82 | 1013.3 |
| 20260906081536 | 60 | 190 | 0.0 | 0.0 | 0.00 | 0.34 | 0.04 | 82 | 1013.2 |
| 20260906080039 | 60 | 190 | 0.0 | 0.0 | 0.00 | 0.34 | 0.04 | 82 | 1013.1 |
| 20260906074534 | 60 | 190 | 0.0 | 0.0 | 0.00 | 0.34 | 0.04 | 82 | 1013.1 |
| 20260906073034 | 60 | 190 | 0.0 | 0.0 | 0.00 | 0.34 | 0.04 | 82 | 1013.2 |
| 20260906071533 | 60 | 190 | 0.0 | 0.0 | 0.00 | 0.34 | 0.04 | 82 | 1013.1 |
| 20260906070031 | 60 | 190 | 0.0 | 0.0 | 0.01 | 0.34 | 0.04 | 82 | 1013.0 |
| 20260906064531 | 60 | 190 | 0.0 | 0.0 | 0.02 | 0.34 | 0.04 | 82 | 1013.1 |
| 20260906063030 | 60 | 190 | 0.0 | 0.0 | 0.02 | 0.34 | 0.04 | 82 | 1013.2 |
| 20260906061530 | 60 | 190 | 0.0 | 0.0 | 0.03 | 0.34 | 0.04 | 82 | 1013.3 |
| 20260906060028 | 60 | 190 | 0.0 | 0.0 | 0.02 | 0.33 | 0.03 | 82 | 1013.4 |
| 20260906054528 | 60 | 190 | 0.0 | 0.0 | 0.01 | 0.32 | 0.02 | 82 | 1013.4 |
| 20260906053026 | 60 | 190 | 0.0 | 0.0 | 0.01 | 0.32 | 0.02 | 82 | 1013.3 |
| 20260906051525 | 61 | 190 | 0.0 | 0.0 | 0.00 | 0.31 | 0.01 | 82 | 1013.3 |
| 20260906050024 | 61 | 190 | 0.0 | 0.0 | 0.01 | 0.31 | 0.01 | 82 | 1013.2 |
| 20260906044522 | 61 | 190 | 0.0 | 0.0 | 0.01 | 0.31 | 0.01 | 82 | 1013.0 |
| 20260906043029 | 61 | 190 | 0.0 | 0.0 | 0.01 | 0.31 | 0.01 | 82 | 1013.0 |
| 20260906041521 | 61 | 190 | 0.0 | 0.0 | 0.01 | 0.31 | 0.01 | 82 | 1012.9 |
| 20260906040019 | 61 | 190 | 0.0 | 0.0 | 0.00 | 0.30 | 0.30 | 82 | 1013.1 |
| 20260906034531 | 61 | 190 | 0.0 | 0.0 | 0.00 | 0.30 | 0.30 | 82 | 1013.1 |
| 20260906033016 | 61 | 190 | 0.0 | 0.0 | 0.00 | 0.30 | 0.30 | 82 | 1012.9 |
| 20260906031524 | 61 | 190 | 0.0 | 0.0 | 0.00 | 0.30 | 0.30 | 82 | 1012.8 |
| 20260906031004 | 62 | 0 | 0.0 | 0.0 | 0.00 | 0.30 | 0.30 | 82 | 1012.6 |
| 20260906030004 | 62 | 0 | 0.0 | 0.0 | 0.00 | 0.30 | 0.30 | 82 | 1012.4 |
| 20260906025503 | 62 | 0 | 0.0 | 0.0 | 0.00 | 0.30 | 0.30 | 82 | 1012.3 |
| 20260906025004 | 62 | 0 | 0.0 | 0.0 | 0.00 | 0.30 | 0.30 | 82 | 1012.4 |
| 20260906024616 | 62 | 190 | 0.0 | 0.0 | 0.00 | 0.30 | 0.30 | 82 | 1012.7 |
| 20260906024503 | 62 | 0 | 0.0 | 0.0 | 0.00 | 0.30 | 0.30 | 82 | 1012.5 |
| 20260906024003 | 62 | 0 | 0.0 | 0.0 | 0.00 | 0.30 | 0.30 | 82 | 1012.6 |
| 20260906023503 | 62 | 0 | 0.0 | 0.0 | 0.00 | 0.30 | 0.30 | 82 | 1012.5 |
| 20260906023104 | 62 | 190 | 0.0 | 0.0 | 0.00 | 0.30 | 0.30 | 82 | 1012.7 |
| 20260906023003 | 62 | 0 | 0.0 | 0.0 | 0.00 | 0.30 | 0.30 | 82 | 1012.5 |
| 20260906022003 | 62 | 0 | 0.0 | 0.0 | 0.00 | 0.30 | 0.30 | 82 | 1012.7 |
| 20260906021606 | 62 | 190 | 0.0 | 0.0 | 0.00 | 0.30 | 0.30 | 82 | 1012.8 |
| 20260906021504 | 62 | 0 | 0.0 | 0.0 | 0.00 | 0.30 | 0.30 | 82 | 1012.6 |
| 20260906021003 | 62 | 0 | 0.0 | 0.0 | 0.00 | 0.30 | 0.30 | 82 | 1012.5 |
| 20260906020503 | 63 | 0 | 0.0 | 0.0 | 0.00 | 0.30 | 0.30 | 82 | 1012.5 |
| 20260906020104 | 62 | 190 | 0.0 | 0.0 | 0.00 | 0.30 | 0.30 | 82 | 1012.6 |
| 20260906020004 | 63 | 0 | 0.0 | 0.0 | 0.00 | 0.30 | 0.30 | 82 | 1012.4 |
| 20260906015504 | 63 | 0 | 0.0 | 0.0 | 0.00 | 0.30 | 0.30 | 82 | 1012.3 |
| 20260906015004 | 63 | 0 | 0.0 | 0.0 | 0.00 | 0.30 | 0.30 | 82 | 1012.4 |
| 20260906014607 | 63 | 190 | 0.0 | 0.0 | 0.00 | 0.30 | 0.30 | 82 | 1012.6 |
| 20260906014504 | 63 | 0 | 0.0 | 0.0 | 0.00 | 0.30 | 0.30 | 82 | 1012.4 |
| 20260906014004 | 64 | 0 | 0.0 | 0.0 | 0.00 | 0.30 | 0.30 | 82 | 1012.3 |
| 20260906013104 | 63 | 190 | 0.0 | 0.0 | 0.00 | 0.30 | 0.30 | 82 | 1012.6 |
| 20260906013004 | 64 | 0 | 0.0 | 0.0 | 0.00 | 0.30 | 0.30 | 82 | 1012.4 |
| 20260906012503 | 64 | 0 | 0.0 | 0.0 | 0.00 | 0.30 | 0.30 | 82 | 1012.5 |
| 20260906012004 | 64 | 0 | 0.0 | 0.0 | 0.00 | 0.30 | 0.30 | 82 | 1012.2 |
| 20260906011604 | 64 | 190 | 0.0 | 0.0 | 0.00 | 0.30 | 0.30 | 82 | 1012.3 |
| 20260906011504 | 64 | 191 | 0.0 | 2.0 | 0.00 | 0.30 | 0.30 | 82 | 1012.1 |
| 20260906011003 | 64 | 191 | 0.0 | 3.0 | 0.01 | 0.30 | 0.30 | 82 | 1012.1 |
| 20260906010504 | 65 | 191 | 0.0 | 3.0 | 0.01 | 0.30 | 0.30 | 82 | 1012.1 |
| 20260906010145 | 65 | 190 | 0.0 | 1.0 | 0.01 | 0.30 | 0.30 | 82 | 1012.3 |
| 20260906010004 | 65 | 190 | 0.0 | 1.0 | 0.01 | 0.30 | 0.30 | 82 | 1012.1 |
| 20260906005503 | 65 | 0 | 0.0 | 0.0 | 0.02 | 0.30 | 0.30 | 82 | 1012.0 |
| 20260906005003 | 65 | 0 | 0.0 | 0.0 | 0.02 | 0.30 | 0.30 | 82 | 1011.9 |
| 20260906004617 | 65 | 190 | 0.0 | 0.0 | 0.02 | 0.30 | 0.30 | 82 | 1012.1 |
| 20260906004504 | 65 | 0 | 0.0 | 0.0 | 0.02 | 0.30 | 0.30 | 82 | 1011.9 |
| 20260906004004 | 65 | 0 | 0.0 | 0.0 | 0.02 | 0.30 | 0.30 | 82 | 1011.8 |
| 20260906003503 | 66 | 0 | 0.0 | 0.0 | 0.02 | 0.30 | 0.30 | 82 | 1011.8 |
| 20260906003103 | 65 | 190 | 0.0 | 0.0 | 0.02 | 0.30 | 0.30 | 82 | 1011.9 |
| 20260906003003 | 66 | 0 | 0.0 | 0.0 | 0.02 | 0.30 | 0.30 | 82 | 1011.7 |
| 20260906002503 | 66 | 0 | 0.0 | 0.0 | 0.02 | 0.30 | 0.30 | 82 | 1011.7 |
| 20260906001607 | 65 | 190 | 0.0 | 0.0 | 0.02 | 0.30 | 0.30 | 82 | 1011.8 |
| 20260906000504 | 66 | 0 | 0.0 | 0.0 | 0.01 | 0.29 | 0.29 | 82 | 1011.5 |
| 20260906000003 | 66 | 0 | 0.0 | 0.0 | 0.00 | 0.28 | 0.28 | 82 | 1011.5 |
| 20260905235503 | 66 | 0 | 0.0 | 0.0 | 0.00 | 0.28 | 0.28 | 82 | 1011.4 |
| 20260905235003 | 66 | 0 | 0.0 | 0.0 | 0.00 | 0.28 | 0.28 | 82 | 1011.2 |
| 20260905234606 | 66 | 190 | 0.0 | 0.0 | 0.00 | 0.28 | 0.28 | 82 | 1011.3 |
| 20260905234503 | 66 | 0 | 0.0 | 0.0 | 0.00 | 0.28 | 0.28 | 82 | 1011.1 |
| 20260905234003 | 67 | 0 | 0.0 | 0.0 | 0.00 | 0.28 | 0.28 | 82 | 1011.0 |
| 20260905233503 | 67 | 0 | 0.0 | 0.0 | 0.00 | 0.28 | 0.28 | 82 | 1011.0 |
| 20260905233103 | 66 | 190 | 0.0 | 0.0 | 0.00 | 0.28 | 0.28 | 82 | 1011.1 |
| 20260905233003 | 67 | 0 | 0.0 | 0.0 | 0.00 | 0.28 | 0.28 | 82 | 1010.9 |
| 20260905232003 | 67 | 0 | 0.0 | 0.0 | 0.00 | 0.28 | 0.28 | 82 | 1010.9 |
| 20260905231614 | 67 | 190 | 0.0 | 0.0 | 0.00 | 0.28 | 0.28 | 82 | 1011.1 |
| 20260905231503 | 67 | 0 | 0.0 | 0.0 | 0.00 | 0.28 | 0.28 | 82 | 1010.9 |
| 20260905231003 | 67 | 0 | 0.0 | 0.0 | 0.00 | 0.28 | 0.28 | 82 | 1010.9 |
| 20260905230503 | 67 | 0 | 0.0 | 0.0 | 0.00 | 0.28 | 0.28 | 82 | 1010.8 |
| 20260905225504 | 68 | 0 | 0.0 | 0.0 | 0.00 | 0.28 | 0.28 | 82 | 1010.7 |
| 20260905225003 | 68 | 0 | 0.0 | 0.0 | 0.00 | 0.28 | 0.28 | 82 | 1010.8 |
| 20260905224603 | 67 | 190 | 0.0 | 0.0 | 0.00 | 0.28 | 0.28 | 82 | 1010.9 |
| 20260905224503 | 68 | 0 | 0.0 | 0.0 | 0.00 | 0.28 | 0.28 | 82 | 1010.7 |
| 20260905224003 | 68 | 0 | 0.0 | 0.0 | 0.00 | 0.28 | 0.28 | 81 | 1010.6 |
| 20260905223503 | 68 | 0 | 0.0 | 0.0 | 0.00 | 0.28 | 0.28 | 81 | 1010.6 |
| 20260905223102 | 67 | 190 | 0.0 | 0.0 | 0.00 | 0.28 | 0.28 | 81 | 1010.9 |
| 20260905223003 | 68 | 0 | 0.0 | 0.0 | 0.00 | 0.28 | 0.28 | 81 | 1010.6 |
| 20260905222503 | 68 | 0 | 0.0 | 0.0 | 0.01 | 0.28 | 0.28 | 81 | 1010.6 |
| 20260905221603 | 68 | 190 | 0.0 | 0.0 | 0.01 | 0.28 | 0.28 | 81 | 1010.7 |
| 20260905221504 | 68 | 0 | 0.0 | 0.0 | 0.01 | 0.28 | 0.28 | 81 | 1010.5 |
| 20260905220503 | 68 | 0 | 0.0 | 0.0 | 0.02 | 0.28 | 0.28 | 81 | 1010.3 |
| 20260905220003 | 68 | 0 | 0.0 | 0.0 | 0.06 | 0.28 | 0.28 | 81 | 1010.3 |
| 20260905215503 | 68 | 0 | 0.0 | 0.0 | 0.07 | 0.28 | 0.28 | 81 | 1010.2 |
| 20260905215003 | 68 | 0 | 0.0 | 0.0 | 0.07 | 0.28 | 0.28 | 81 | 1010.2 |
| 20260905214603 | 68 | 190 | 0.0 | 0.0 | 0.20 | 0.28 | 0.28 | 81 | 1010.3 |
| 20260905214504 | 68 | 0 | 0.0 | 0.0 | 0.21 | 0.28 | 0.28 | 81 | 1010.2 |
| 20260905214004 | 68 | 0 | 0.0 | 0.0 | 0.28 | 0.28 | 0.28 | 81 | 1010.3 |
| 20260905213504 | 68 | 0 | 0.0 | 0.0 | 0.28 | 0.28 | 0.28 | 81 | 1010.1 |
| 20260905213103 | 68 | 190 | 0.0 | 0.0 | 0.28 | 0.28 | 0.28 | 81 | 1010.3 |
| 20260905213003 | 68 | 0 | 0.0 | 0.0 | 0.28 | 0.28 | 0.28 | 81 | 1010.1 |
| 20260905212503 | 68 | 0 | 0.0 | 0.0 | 0.27 | 0.27 | 0.27 | 80 | 1010.0 |
| 20260905212003 | 68 | 0 | 0.0 | 0.0 | 0.27 | 0.27 | 0.27 | 80 | 1009.9 |
| 20260905211610 | 68 | 190 | 0.0 | 0.0 | 0.27 | 0.27 | 0.27 | 80 | 1009.9 |
| 20260905211503 | 68 | 0 | 0.0 | 0.0 | 0.27 | 0.27 | 0.27 | 79 | 1009.8 |
| 20260905211003 | 69 | 0 | 0.0 | 0.0 | 0.27 | 0.27 | 0.27 | 79 | 1010.0 |
| 20260905210503 | 69 | 0 | 0.0 | 0.0 | 0.25 | 0.25 | 0.25 | 78 | 1010.0 |
| 20260905210120 | 69 | 190 | 0.0 | 0.0 | 0.22 | 0.22 | 0.22 | 76 | 1010.1 |
| 20260905210003 | 70 | 0 | 0.0 | 0.0 | 0.22 | 0.22 | 0.22 | 76 | 1009.9 |
| 20260905205503 | 71 | 0 | 0.0 | 0.0 | 0.21 | 0.21 | 0.21 | 74 | 1009.8 |
| 20260905205003 | 72 | 0 | 0.0 | 0.0 | 0.21 | 0.21 | 0.21 | 72 | 1009.8 |
| 20260905204604 | 72 | 190 | 0.0 | 0.0 | 0.07 | 0.07 | 0.07 | 69 | 1010.0 |
| 20260905204503 | 73 | 0 | 0.0 | 0.0 | 0.06 | 0.06 | 0.06 | 68 | 1009.7 |
| 20260905204003 | 74 | 0 | 0.0 | 0.0 | 0.00 | 0.00 | 0.00 | 66 | 1009.4 |
| 20260905203503 | 74 | 0 | 0.0 | 0.0 | 0.00 | 0.00 | 0.00 | 65 | 1009.5 |
| 20260905203103 | 74 | 190 | 0.0 | 1.0 | 0.00 | 0.00 | 0.00 | 62 | 1009.5 |
| 20260905203003 | 74 | 191 | 0.0 | 1.0 | 0.00 | 0.00 | 0.00 | 62 | 1009.4 |
| 20260905202503 | 75 | 191 | 0.0 | 1.0 | 0.00 | 0.00 | 0.00 | 59 | 1009.4 |
| 20260905202003 | 75 | 0 | 0.0 | 0.0 | 0.00 | 0.00 | 0.00 | 59 | 1009.4 |
| 20260905201602 | 75 | 190 | 0.0 | 0.0 | 0.00 | 0.00 | 0.00 | 62 | 1009.6 |
| 20260905201503 | 75 | 0 | 0.0 | 0.0 | 0.00 | 0.00 | 0.00 | 60 | 1009.4 |
| 20260905201003 | 76 | 0 | 0.0 | 0.0 | 0.00 | 0.00 | 0.00 | 62 | 1009.4 |
| 20260905200127 | 76 | 190 | 0.0 | 0.0 | 0.00 | 0.00 | 0.00 | 62 | 1009.3 |
| 20260905200003 | 76 | 191 | 0.0 | 1.0 | 0.00 | 0.00 | 0.00 | 61 | 1009.2 |
| 20260905195503 | 77 | 191 | 0.0 | 1.0 | 0.00 | 0.00 | 0.00 | 58 | 1009.2 |
| 20260905195004 | 77 | 0 | 0.0 | 0.0 | 0.00 | 0.00 | 0.00 | 58 | 1009.2 |
| 20260905194602 | 76 | 190 | 0.0 | 0.0 | 0.00 | 0.00 | 0.00 | 59 | 1009.4 |
| 20260905194503 | 76 | 0 | 0.0 | 0.0 | 0.00 | 0.00 | 0.00 | 59 | 1009.3 |
| 20260905194003 | 77 | 0 | 0.0 | 0.0 | 0.00 | 0.00 | 0.00 | 59 | 1009.3 |
| 20260905193503 | 77 | 0 | 0.0 | 0.0 | 0.00 | 0.00 | 0.00 | 60 | 1009.3 |
| 20260905193103 | 77 | 190 | 0.0 | 0.0 | 0.00 | 0.00 | 0.00 | 59 | 1009.3 |
| 20260905193004 | 77 | 0 | 0.0 | 0.0 | 0.00 | 0.00 | 0.00 | 59 | 1009.2 |
| 20260905192504 | 77 | 0 | 0.0 | 0.0 | 0.00 | 0.00 | 0.00 | 59 | 1009.3 |
| 20260905192004 | 77 | 0 | 0.0 | 0.0 | 0.00 | 0.00 | 0.00 | 59 | 1009.3 |
| 20260905191602 | 77 | 190 | 0.0 | 0.0 | 0.00 | 0.00 | 0.00 | 60 | 1009.3 |
| 20260905191504 | 77 | 0 | 0.0 | 0.0 | 0.00 | 0.00 | 0.00 | 59 | 1009.3 |
| 20260905191003 | 76 | 191 | 0.0 | 1.0 | 0.00 | 0.00 | 0.00 | 63 | 1009.3 |
| 20260905190503 | 76 | 191 | 0.0 | 1.0 | 0.00 | 0.00 | 0.00 | 60 | 1009.2 |
| 20260905190003 | 74 | 0 | 0.0 | 0.0 | 0.00 | 0.00 | 0.00 | 68 | 1009.3 |
| 20260905185504 | 73 | 0 | 0.0 | 0.0 | 0.00 | 0.00 | 0.00 | 66 | 1009.3 |
| 20260905185004 | 73 | 0 | 0.0 | 0.0 | 0.00 | 0.00 | 0.00 | 68 | 1009.4 |
| 20260905184609 | 73 | 190 | 0.0 | 0.0 | 0.00 | 0.00 | 0.00 | 67 | 1009.5 |
| 20260905183504 | 73 | 0 | 0.0 | 0.0 | 0.00 | 0.00 | 0.00 | 67 | 1009.4 |
| 20260905183104 | 72 | 190 | 0.0 | 0.0 | 0.00 | 0.00 | 0.00 | 66 | 1009.4 |
| 20260905183004 | 73 | 0 | 0.0 | 0.0 | 0.00 | 0.00 | 0.00 | 66 | 1009.4 |
| 20260905182503 | 73 | 0 | 0.0 | 0.0 | 0.00 | 0.00 | 0.00 | 64 | 1009.4 |
| 20260905181602 | 74 | 190 | 0.0 | 0.0 | 0.00 | 0.00 | 0.00 | 63 | 1009.6 |
| 20260905180503 | 76 | 0 | 0.0 | 0.0 | 0.00 | 0.00 | 0.00 | 60 | 1009.5 |
| 20260905180103 | 75 | 190 | 0.0 | 1.0 | 0.00 | 0.00 | 0.00 | 60 | 1009.6 |
| 20260905180004 | 76 | 191 | 0.0 | 1.0 | 0.00 | 0.00 | 0.00 | 60 | 1009.4 |
| 20260905175504 | 76 | 191 | 0.0 | 1.0 | 0.00 | 0.00 | 0.00 | 54 | 1009.5 |
| 20260905175003 | 75 | 0 | 0.0 | 0.0 | 0.00 | 0.00 | 0.00 | 64 | 1009.5 |
| 20260905174609 | 74 | 190 | 0.0 | 0.0 | 0.00 | 0.00 | 0.00 | 63 | 1009.6 |
| 20260905174503 | 75 | 0 | 0.0 | 0.0 | 0.00 | 0.00 | 0.00 | 62 | 1009.5 |
| 20260905173503 | 76 | 0 | 0.0 | 0.0 | 0.00 | 0.00 | 0.00 | 59 | 1009.4 |
| 20260905173103 | 77 | 190 | 0.0 | 0.0 | 0.00 | 0.00 | 0.00 | 56 | 1009.5 |
| 20260905173004 | 77 | 0 | 0.0 | 0.0 | 0.00 | 0.00 | 0.00 | 53 | 1009.3 |
| 20260905172004 | 78 | 0 | 0.0 | 0.0 | 0.00 | 0.00 | 0.00 | 55 | 1009.4 |
| 20260905171603 | 78 | 190 | 0.0 | 0.0 | 0.00 | 0.00 | 0.00 | 54 | 1009.5 |
| 20260905171504 | 78 | 0 | 0.0 | 0.0 | 0.00 | 0.00 | 0.00 | 53 | 1009.3 |
| 20260905171003 | 78 | 0 | 0.0 | 0.0 | 0.00 | 0.00 | 0.00 | 53 | 1009.4 |
| 20260905170504 | 78 | 191 | 0.0 | 2.0 | 0.00 | 0.00 | 0.00 | 51 | 1009.4 |
| 20260905170004 | 78 | 191 | 0.0 | 3.0 | 0.00 | 0.00 | 0.00 | 50 | 1009.3 |
| 20260905165503 | 79 | 190 | 0.0 | 3.0 | 0.00 | 0.00 | 0.00 | 54 | 1009.3 |
| 20260905165003 | 79 | 191 | 0.0 | 4.0 | 0.00 | 0.00 | 0.00 | 52 | 1009.3 |
| 20260905164606 | 79 | 190 | 0.0 | 5.0 | 0.00 | 0.00 | 0.00 | 50 | 1009.4 |
| 20260905164503 | 80 | 191 | 0.0 | 4.0 | 0.00 | 0.00 | 0.00 | 49 | 1009.3 |
| 20260905164004 | 80 | 0 | 0.0 | 0.0 | 0.00 | 0.00 | 0.00 | 50 | 1009.2 |
| 20260905163503 | 79 | 0 | 0.0 | 0.0 | 0.00 | 0.00 | 0.00 | 54 | 1009.3 |
| 20260905163103 | 78 | 190 | 0.0 | 2.0 | 0.00 | 0.00 | 0.00 | 54 | 1009.4 |
| 20260905162503 | 78 | 191 | 0.0 | 4.0 | 0.00 | 0.00 | 0.00 | 55 | 1009.2 |
| 20260905162004 | 77 | 191 | 0.0 | 4.0 | 0.00 | 0.00 | 0.00 | 52 | 1009.3 |
| 20260905161603 | 77 | 190 | 0.0 | 2.0 | 0.00 | 0.00 | 0.00 | 52 | 1009.5 |
| 20260905161503 | 77 | 191 | 0.0 | 3.0 | 0.00 | 0.00 | 0.00 | 54 | 1009.4 |
| 20260905160503 | 77 | 191 | 0.0 | 4.0 | 0.00 | 0.00 | 0.00 | 56 | 1009.5 |
| 20260905155503 | 76 | 191 | 0.0 | 2.0 | 0.00 | 0.00 | 0.00 | 56 | 1009.5 |
| 20260905155003 | 77 | 191 | 0.0 | 2.0 | 0.00 | 0.00 | 0.00 | 54 | 1009.5 |
| 20260905154605 | 76 | 190 | 0.0 | 2.0 | 0.00 | 0.00 | 0.00 | 54 | 1009.7 |
| 20260905154004 | 76 | 191 | 0.0 | 3.0 | 0.00 | 0.00 | 0.00 | 61 | 1009.6 |
| 20260905153503 | 76 | 191 | 0.0 | 3.0 | 0.00 | 0.00 | 0.00 | 57 | 1009.8 |
| 20260905153103 | 75 | 190 | 0.0 | 3.0 | 0.00 | 0.00 | 0.00 | 58 | 1010.0 |
| 20260905153004 | 76 | 191 | 0.0 | 1.0 | 0.00 | 0.00 | 0.00 | 57 | 1009.8 |
| 20260905152504 | 76 | 191 | 0.0 | 1.0 | 0.00 | 0.00 | 0.00 | 59 | 1009.7 |
| 20260905152003 | 76 | 191 | 0.0 | 3.0 | 0.00 | 0.00 | 0.00 | 55 | 1009.7 |
| 20260905151631 | 75 | 190 | 0.0 | 3.0 | 0.00 | 0.00 | 0.00 | 55 | 1009.8 |
| 20260905151504 | 76 | 191 | 0.0 | 3.0 | 0.00 | 0.00 | 0.00 | 55 | 1009.8 |
| 20260905150504 | 76 | 191 | 0.0 | 3.0 | 0.00 | 0.00 | 0.00 | 56 | 1009.7 |
| 20260905150003 | 75 | 190 | 0.0 | 6.0 | 0.00 | 0.00 | 0.00 | 59 | 1009.6 |
| 20260905145504 | 75 | 191 | 0.0 | 6.0 | 0.00 | 0.00 | 0.00 | 57 | 1009.6 |
| 20260905145003 | 75 | 191 | 0.0 | 6.0 | 0.00 | 0.00 | 0.00 | 59 | 1009.7 |
| 20260905144601 | 74 | 190 | 0.0 | 0.0 | 0.00 | 0.01 | 0.00 | 64 | 1009.8 |
| 20260905144503 | 74 | 0 | 0.0 | 0.0 | 0.00 | 0.01 | 0.00 | 63 | 1009.7 |
| 20260905144003 | 74 | 191 | 0.0 | 1.0 | 0.00 | 0.01 | 0.00 | 65 | 1009.7 |
| 20260905143102 | 71 | 190 | 0.0 | 1.0 | 0.00 | 0.01 | 0.00 | 67 | 1010.0 |
| 20260905142003 | 71 | 191 | 0.0 | 5.0 | 0.00 | 0.01 | 0.00 | 68 | 1009.9 |
| 20260905141602 | 71 | 190 | 0.0 | 4.0 | 0.00 | 0.01 | 0.00 | 67 | 1010.1 |
| 20260905141504 | 71 | 191 | 0.0 | 2.0 | 0.00 | 0.01 | 0.00 | 68 | 1010.0 |
| 20260905140503 | 71 | 191 | 0.0 | 4.0 | 0.00 | 0.01 | 0.00 | 68 | 1009.9 |
| 20260905140103 | 71 | 190 | 0.0 | 0.0 | 0.00 | 0.01 | 0.00 | 67 | 1010.0 |
| 20260905140004 | 71 | 0 | 0.0 | 0.0 | 0.00 | 0.01 | 0.00 | 70 | 1009.9 |
| 20260905135504 | 71 | 0 | 0.0 | 0.0 | 0.00 | 0.01 | 0.00 | 70 | 1009.9 |
| 20260905134607 | 71 | 190 | 0.0 | 5.0 | 0.00 | 0.01 | 0.00 | 70 | 1010.0 |
| 20260905134503 | 71 | 191 | 0.0 | 3.0 | 0.00 | 0.01 | 0.00 | 69 | 1010.0 |
| 20260905134004 | 71 | 0 | 0.0 | 0.0 | 0.00 | 0.01 | 0.00 | 71 | 1009.9 |
| 20260905133504 | 70 | 0 | 0.0 | 0.0 | 0.00 | 0.01 | 0.00 | 73 | 1009.9 |
| 20260905133103 | 69 | 190 | 0.0 | 0.0 | 0.00 | 0.01 | 0.00 | 75 | 1010.0 |
| 20260905133003 | 70 | 0 | 0.0 | 0.0 | 0.00 | 0.01 | 0.00 | 75 | 1009.8 |
| 20260905132503 | 69 | 0 | 0.0 | 0.0 | 0.00 | 0.01 | 0.00 | 78 | 1009.8 |
| 20260905132003 | 68 | 0 | 0.0 | 0.0 | 0.00 | 0.01 | 0.00 | 82 | 1009.7 |
| 20260905131608 | 66 | 190 | 0.0 | 0.0 | 0.00 | 0.01 | 0.00 | 82 | 1009.9 |
| 20260905131003 | 66 | 0 | 0.0 | 0.0 | 0.00 | 0.01 | 0.00 | 82 | 1009.9 |
| 20260905130503 | 65 | 0 | 0.0 | 0.0 | 0.00 | 0.01 | 0.00 | 82 | 1010.1 |
| 20260905130004 | 64 | 0 | 0.0 | 0.0 | 0.00 | 0.01 | 0.00 | 82 | 1010.1 |
| 20260905124515 | 61 | 190 | 0.0 | 0.0 | 0.00 | 0.01 | 0.00 | 82 | 1010.2 |
| 20260905123029 | 59 | 190 | 0.0 | 0.0 | 0.00 | 0.01 | 0.00 | 82 | 1010.1 |
| 20260905121506 | 57 | 190 | 0.0 | 0.0 | 0.00 | 0.01 | 0.00 | 82 | 1010.0 |
| 20260905120005 | 56 | 190 | 0.0 | 0.0 | 0.00 | 0.01 | 0.00 | 82 | 1009.8 |
| 20260905114504 | 56 | 190 | 0.0 | 0.0 | 0.00 | 0.01 | 0.00 | 82 | 1009.6 |